FW0194 Weather Reports


Display with metric or nautical units.
time (UTC)temp
F
wind
direction
speed
MPH
gust
MPH
rain 1hr
in
rain 24hr
in
rain mn
in
humidity
%
barometer
mb
20190216105844 42 63 1.0 3.0 0.01 0.39 0.01 89 1021.0
20190216105344 42 63 1.0 3.0 0.01 0.39 0.01 90 1021.1
20190216104844 42 63 0.0 5.0 0.01 0.39 0.01 90 1021.1
20190216104345 42 61 1.0 5.0 0.01 0.39 0.01 91 1021.1
20190216103844 42 44 1.0 5.0 0.00 0.38 0.00 91 1021.2
20190216103344 41 45 1.0 3.0 0.00 0.38 0.00 91 1021.1
20190216102844 41 41 1.0 3.0 0.00 0.38 0.00 91 1021.2
20190216102345 41 27 1.0 2.0 0.00 0.38 0.00 91 1021.2
20190216101845 41 24 1.0 2.0 0.00 0.38 0.00 91 1021.2
20190216101344 41 24 1.0 2.0 0.00 0.38 0.00 91 1021.2
20190216100844 41 24 1.0 2.0 0.00 0.38 0.00 91 1021.2
20190216100344 41 24 0.0 2.0 0.00 0.38 0.00 91 1021.2
20190216095844 41 24 1.0 2.0 0.00 0.38 0.00 90 1021.2
20190216095344 41 24 1.0 2.0 0.00 0.38 0.00 90 1021.2
20190216094845 41 24 1.0 3.0 0.00 0.38 0.00 90 1021.2
20190216094343 41 24 1.0 3.0 0.00 0.38 0.00 91 1021.3
20190216093844 41 21 1.0 4.0 0.00 0.38 0.00 91 1021.3
20190216093344 41 7 1.0 4.0 0.00 0.39 0.00 92 1021.4
20190216092842 41 3 1.0 2.0 0.00 0.41 0.00 91 1021.5
20190216092345 41 3 0.0 1.0 0.00 0.42 0.00 90 1021.3
20190216091843 41 3 0.0 1.0 0.00 0.43 0.00 89 1021.1
20190216091342 41 3 0.0 1.0 0.00 0.43 0.00 89 1021.1
20190216090845 41 3 0.0 3.0 0.00 0.43 0.00 90 1021.1
20190216090344 42 3 0.0 3.0 0.00 0.43 0.00 90 1021.1
20190216085843 42 3 1.0 2.0 0.00 0.43 0.00 90 1021.1
20190216085342 42 3 1.0 2.0 0.00 0.43 0.00 89 1021.2
20190216084842 42 3 1.0 2.0 0.00 0.43 0.00 89 1021.1
20190216084342 42 3 0.0 2.0 0.00 0.43 0.00 89 1021.2
20190216083842 42 3 0.0 2.0 0.00 0.43 0.00 89 1021.0
20190216083342 43 3 1.0 2.0 0.00 0.43 0.00 89 1021.0
20190216082842 43 3 1.0 2.0 0.00 0.43 0.00 89 1020.9
20190216082343 43 3 1.0 2.0 0.00 0.43 0.00 89 1020.9
20190216081842 43 3 1.0 1.0 0.00 0.43 0.00 89 1020.7
20190216081341 43 3 0.0 1.0 0.00 0.43 0.00 89 1020.8
20190216080841 43 3 0.0 1.0 0.00 0.43 0.00 89 1020.7
20190216080342 43 3 0.0 1.0 0.00 0.43 0.00 89 1020.6
20190216075842 43 3 0.0 1.0 0.00 0.43 0.43 89 1020.6
20190216075341 43 3 0.0 2.0 0.00 0.43 0.43 89 1020.6
20190216074841 44 3 0.0 2.0 0.00 0.43 0.43 89 1020.6
20190216074341 44 3 1.0 2.0 0.00 0.43 0.43 89 1020.5
20190216073846 44 3 1.0 1.0 0.00 0.43 0.43 89 1020.6
20190216073347 44 3 0.0 2.0 0.00 0.43 0.43 89 1020.7
20190216072847 44 3 1.0 2.0 0.00 0.43 0.43 89 1020.6
20190216072343 44 3 1.0 2.0 0.00 0.43 0.43 89 1020.6
20190216071843 44 0 0.0 1.0 0.00 0.43 0.43 89 1020.7
20190216071342 44 0 0.0 3.0 0.00 0.43 0.43 89 1020.7
20190216070840 44 0 0.0 3.0 0.00 0.43 0.43 89 1020.7
20190216070340 44 3 1.0 3.0 0.01 0.43 0.43 90 1020.8
20190216065840 44 39 1.0 2.0 0.01 0.43 0.43 90 1020.7
20190216065341 43 39 0.0 2.0 0.01 0.43 0.43 90 1020.6
20190216064840 43 39 1.0 2.0 0.01 0.43 0.43 91 1020.5
20190216064340 43 39 1.0 2.0 0.01 0.43 0.43 90 1020.4
20190216063838 43 39 1.0 2.0 0.01 0.43 0.43 90 1020.4
20190216063338 43 28 1.0 2.0 0.01 0.43 0.43 90 1020.4
20190216062838 43 28 1.0 2.0 0.01 0.43 0.43 90 1020.5
20190216062338 43 28 0.0 2.0 0.01 0.43 0.43 89 1020.3
20190216061838 43 18 0.0 2.0 0.01 0.43 0.43 89 1020.4
20190216061338 44 18 0.0 2.0 0.01 0.43 0.43 90 1020.2
20190216060838 44 18 0.0 2.0 0.01 0.43 0.43 90 1020.2
20190216060337 44 18 1.0 2.0 0.00 0.42 0.42 90 1020.2
20190216055838 44 18 1.0 2.0 0.00 0.42 0.42 90 1020.2
20190216055337 44 18 0.0 1.0 0.00 0.42 0.42 90 1020.2
20190216054838 44 18 0.0 1.0 0.00 0.42 0.42 90 1020.1
20190216054337 44 18 0.0 2.0 0.00 0.42 0.42 90 1020.2
20190216053837 44 18 1.0 2.0 0.00 0.42 0.42 90 1020.0
20190216053337 44 18 0.0 2.0 0.00 0.42 0.42 90 1020.0
20190216052837 44 18 1.0 2.0 0.00 0.42 0.42 90 1020.0
20190216052336 44 18 1.0 2.0 0.00 0.42 0.42 89 1019.9
20190216051836 45 18 1.0 2.0 0.00 0.42 0.42 89 1019.9
20190216051336 45 18 1.0 2.0 0.00 0.42 0.42 89 1019.9
20190216050836 45 18 0.0 0.0 0.00 0.42 0.42 89 1019.8
20190216050336 45 18 0.0 0.0 0.00 0.42 0.42 89 1019.8
20190216045836 45 18 0.0 0.0 0.00 0.42 0.42 89 1019.7
20190216045336 45 18 0.0 2.0 0.00 0.42 0.42 88 1019.6
20190216044837 45 18 0.0 2.0 0.00 0.42 0.42 89 1019.5
20190216044335 45 18 0.0 2.0 0.00 0.42 0.42 90 1019.5
20190216043837 45 18 1.0 2.0 0.00 0.42 0.42 90 1019.4
20190216043336 45 18 0.0 2.0 0.00 0.42 0.42 90 1019.2
20190216042837 45 18 1.0 2.0 0.00 0.42 0.42 90 1019.0
20190216042335 45 18 0.0 3.0 0.00 0.42 0.42 90 1019.0
20190216041838 45 18 1.0 3.0 0.00 0.42 0.42 89 1019.0
20190216041336 45 14 0.0 2.0 0.01 0.42 0.42 89 1019.0
20190216040837 46 14 0.0 2.0 0.02 0.42 0.42 89 1019.0
20190216040336 46 14 0.0 1.0 0.02 0.42 0.42 90 1019.0
20190216035837 46 14 0.0 2.0 0.02 0.42 0.42 90 1018.9
20190216035336 46 14 0.0 2.0 0.02 0.42 0.42 89 1018.8
20190216034835 46 14 0.0 1.0 0.03 0.42 0.42 89 1018.7
20190216034334 46 14 0.0 3.0 0.03 0.42 0.42 89 1018.7
20190216033834 46 14 0.0 3.0 0.03 0.42 0.42 89 1018.6
20190216033335 46 14 1.0 3.0 0.04 0.42 0.42 89 1018.9
20190216032834 46 10 1.0 5.0 0.04 0.42 0.42 89 1018.9
20190216032334 46 0 0.0 5.0 0.04 0.42 0.42 89 1019.1
20190216031835 46 354 1.0 5.0 0.04 0.42 0.42 89 1019.2
20190216031334 46 1 2.0 5.0 0.03 0.41 0.41 89 1019.1
20190216030835 46 358 2.0 6.0 0.02 0.40 0.40 89 1019.1
20190216030334 46 298 2.0 6.0 0.02 0.40 0.40 89 1019.0
20190216025835 47 295 3.0 9.0 0.02 0.40 0.40 88 1018.9
20190216025333 47 299 4.0 10.0 0.03 0.40 0.40 88 1018.8
20190216024833 47 338 4.0 10.0 0.02 0.39 0.39 88 1018.5
20190216024334 47 0 4.0 11.0 0.02 0.39 0.39 88 1018.5
20190216023833 47 320 4.0 11.0 0.02 0.39 0.39 88 1018.4
20190216023333 48 313 2.0 7.0 0.03 0.38 0.38 89 1018.3
20190216022834 48 320 2.0 7.0 0.05 0.38 0.38 89 1018.3
20190216022333 48 355 1.0 4.0 0.06 0.38 0.38 89 1018.2
20190216021832 48 331 1.0 3.0 0.07 0.38 0.38 89 1018.1
20190216021332 48 314 2.0 3.0 0.07 0.38 0.38 89 1017.9
20190216020833 48 348 1.0 5.0 0.07 0.38 0.38 89 1017.8
20190216020334 48 350 2.0 5.0 0.07 0.38 0.38 88 1017.7
20190216015831 48 313 2.0 6.0 0.07 0.38 0.38 88 1017.8
20190216015332 48 303 2.0 6.0 0.07 0.37 0.37 88 1017.6
20190216014832 48 299 4.0 9.0 0.07 0.37 0.37 88 1017.7
20190216014332 48 314 5.0 11.0 0.08 0.37 0.37 87 1017.6
20190216013831 49 316 6.0 15.0 0.07 0.36 0.37 86 1017.6
20190216013332 49 305 6.0 15.0 0.06 0.35 0.35 86 1017.5
20190216012832 49 190 5.0 12.0 0.04 0.33 0.33 86 1017.3
20190216012332 49 303 1.0 2.0 0.03 0.32 0.32 86 1017.3
20190216011832 49 303 1.0 4.0 0.02 0.31 0.31 86 1017.2
20190216011332 49 303 2.0 5.0 0.02 0.31 0.31 85 1017.2
20190216010831 50 300 2.0 7.0 0.03 0.31 0.31 84 1017.2
20190216010331 50 305 3.0 10.0 0.03 0.31 0.31 83 1017.2
20190216005830 50 272 4.0 11.0 0.03 0.31 0.31 81 1017.3
20190216005331 51 357 6.0 12.0 0.02 0.30 0.31 77 1017.2
20190216004830 52 268 3.0 12.0 0.02 0.30 0.30 77 1017.0
20190216004331 53 197 3.0 11.0 0.01 0.29 0.29 76 1016.9
20190216003831 54 228 3.0 9.0 0.01 0.29 0.29 74 1017.0
20190216003332 54 266 1.0 6.0 0.01 0.29 0.29 74 1017.0
20190216002833 54 268 2.0 9.0 0.01 0.29 0.29 73 1017.1
20190216002331 54 264 4.0 9.0 0.01 0.29 0.29 72 1017.0
20190216001831 54 238 2.0 11.0 0.01 0.29 0.29 73 1017.0
20190216001332 54 292 3.0 11.0 0.01 0.29 0.29 72 1017.1
20190216000831 55 275 5.0 7.0 0.00 0.28 0.28 72 1017.1
20190216000330 55 238 2.0 7.0 0.00 0.28 0.28 72 1017.1
20190215235830 55 251 2.0 10.0 0.00 0.28 0.28 71 1017.1
20190215235331 55 268 4.0 11.0 0.00 0.28 0.28 71 1017.1
20190215234831 55 283 4.0 11.0 0.00 0.28 0.28 71 1017.1
20190215234330 56 231 2.0 10.0 0.00 0.28 0.28 73 1017.1
20190215233830 56 292 4.0 9.0 0.00 0.28 0.28 71 1017.1
20190215233329 56 240 2.0 6.0 0.00 0.28 0.28 72 1017.1
20190215232829 56 243 3.0 5.0 0.00 0.28 0.28 73 1017.1
20190215232330 56 275 3.0 11.0 0.00 0.28 0.28 72 1017.2
20190215231828 57 264 4.0 11.0 0.00 0.28 0.28 72 1017.2
20190215231328 57 259 3.0 9.0 0.00 0.28 0.28 72 1017.3
20190215230828 57 252 3.0 7.0 0.00 0.28 0.28 73 1017.1
20190215230328 57 247 4.0 7.0 0.00 0.28 0.28 75 1017.0
20190215225827 57 317 3.0 6.0 0.00 0.28 0.28 78 1017.0
20190215225329 57 266 3.0 6.0 0.00 0.28 0.28 78 1017.0
20190215224829 57 298 2.0 9.0 0.00 0.28 0.28 80 1017.0
20190215224329 57 255 4.0 9.0 0.00 0.28 0.28 80 1017.1
20190215223828 56 279 3.0 7.0 0.00 0.28 0.28 80 1017.1
20190215223328 56 255 2.0 7.0 0.00 0.28 0.28 80 1017.2
20190215222829 56 312 2.0 7.0 0.00 0.28 0.28 81 1017.0
20190215222329 56 252 3.0 7.0 0.00 0.28 0.28 80 1017.1
20190215221829 56 241 3.0 7.0 0.00 0.28 0.28 80 1017.1
20190215221328 55 269 2.0 7.0 0.00 0.28 0.28 81 1017.1
20190215220827 55 303 2.0 7.0 0.00 0.28 0.28 82 1017.2
20190215220328 55 258 3.0 6.0 0.00 0.28 0.28 83 1017.2
20190215215829 54 271 2.0 5.0 0.00 0.28 0.28 84 1017.4
20190215215328 54 286 3.0 6.0 0.00 0.28 0.28 85 1017.5
20190215214828 53 282 2.0 6.0 0.00 0.28 0.28 84 1017.5
20190215214329 53 268 2.0 7.0 0.00 0.28 0.28 87 1017.6
20190215213828 53 282 3.0 7.0 0.01 0.28 0.28 85 1017.7
20190215213327 53 268 2.0 5.0 0.01 0.28 0.28 86 1017.8
20190215212827 52 312 3.0 5.0 0.05 0.28 0.28 87 1017.9
20190215212327 52 240 2.0 6.0 0.05 0.28 0.28 88 1017.9
20190215211828 52 298 4.0 6.0 0.07 0.28 0.28 88 1018.1
20190215211327 51 272 4.0 6.0 0.07 0.28 0.28 89 1018.1
20190215210325 51 296 3.0 5.0 0.07 0.28 0.28 90 1018.2
20190215205825 50 295 3.0 7.0 0.07 0.28 0.28 90 1018.1
20190215205325 50 312 4.0 7.0 0.07 0.28 0.28 89 1018.2
20190215204825 50 309 2.0 10.0 0.07 0.28 0.28 88 1018.3
20190215204325 50 298 5.0 10.0 0.07 0.28 0.28 88 1018.3
20190215203824 51 303 4.0 11.0 0.06 0.27 0.27 86 1018.3
20190215203326 52 321 6.0 11.0 0.06 0.27 0.27 87 1018.5
20190215202824 53 285 3.0 6.0 0.02 0.23 0.23 88 1018.4
20190215202324 53 243 2.0 7.0 0.02 0.23 0.23 87 1018.4
20190215201824 53 221 3.0 9.0 0.00 0.21 0.21 85 1018.4
20190215201324 53 268 4.0 9.0 0.00 0.21 0.21 84 1018.4
20190215200825 54 278 3.0 10.0 0.00 0.21 0.21 85 1018.5
20190215200324 54 220 6.0 10.0 0.00 0.21 0.21 84 1018.6
20190215195825 54 213 4.0 9.0 0.00 0.21 0.21 85 1018.6
20190215195323 54 248 3.0 9.0 0.00 0.21 0.21 86 1018.8
20190215194824 53 192 4.0 9.0 0.01 0.21 0.21 85 1018.8
20190215194323 53 228 2.0 7.0 0.01 0.22 0.21 87 1018.8
20190215193823 53 217 4.0 9.0 0.01 0.28 0.21 86 1018.9
20190215193323 53 200 4.0 9.0 0.01 0.33 0.21 86 1018.8
20190215192824 53 193 4.0 9.0 0.01 0.34 0.21 87 1019.0
20190215192323 52 240 4.0 9.0 0.01 0.34 0.21 86 1018.9
20190215191823 52 231 4.0 6.0 0.01 0.34 0.21 86 1018.9
20190215191323 52 231 2.0 6.0 0.01 0.34 0.21 86 1018.8
20190215190823 52 224 3.0 6.0 0.01 0.34 0.21 86 1018.9
20190215190323 53 240 2.0 6.0 0.01 0.34 0.21 87 1018.8
20190215185822 53 243 2.0 5.0 0.01 0.34 0.21 87 1018.7
20190215185324 52 237 2.0 6.0 0.01 0.34 0.21 87 1018.7
20190215184824 52 180 4.0 6.0 0.01 0.33 0.20 87 1018.6
20190215184324 52 254 2.0 5.0 0.01 0.33 0.20 89 1018.6
20190215183824 52 217 2.0 5.0 0.01 0.33 0.20 89 1018.5
20190215183322 52 212 1.0 3.0 0.01 0.33 0.20 90 1018.4
20190215182822 52 212 2.0 4.0 0.01 0.33 0.20 91 1018.4
20190215182322 52 226 1.0 4.0 0.01 0.33 0.20 91 1018.3
20190215181823 51 190 1.0 3.0 0.01 0.33 0.20 92 1018.3
20190215181323 51 190 1.0 3.0 0.01 0.33 0.20 91 1018.3
20190215180821 51 214 2.0 5.0 0.02 0.33 0.20 91 1018.4
20190215180323 50 227 3.0 5.0 0.03 0.33 0.20 92 1018.4
20190215175821 50 231 2.0 6.0 0.03 0.33 0.20 91 1018.3
20190215175320 50 244 2.0 6.0 0.03 0.33 0.20 92 1018.3
20190215174821 50 255 2.0 5.0 0.03 0.32 0.19 92 1018.4
20190215174321 50 240 2.0 5.0 0.03 0.32 0.19 92 1018.3
20190215173822 50 288 0.0 5.0 0.04 0.32 0.19 92 1018.3
20190215173323 50 228 2.0 5.0 0.04 0.32 0.19 93 1018.1
20190215172822 50 272 1.0 4.0 0.04 0.32 0.19 92 1018.1
20190215172322 50 265 2.0 4.0 0.04 0.32 0.19 93 1017.8
20190215171822 50 275 2.0 4.0 0.04 0.32 0.19 93 1017.8
20190215171321 50 252 2.0 6.0 0.04 0.32 0.19 93 1017.9
20190215170826 50 283 2.0 7.0 0.04 0.31 0.18 92 1017.7
20190215170327 49 313 2.0 10.0 0.03 0.30 0.18 92 1017.7
20190215165825 49 241 5.0 10.0 0.03 0.30 0.17 92 1017.6
20190215165321 49 329 5.0 10.0 0.03 0.30 0.17 92 1017.5
20190215164823 49 254 3.0 6.0 0.02 0.29 0.16 92 1017.5
20190215164320 49 300 2.0 6.0 0.02 0.29 0.16 92 1017.4
20190215163818 49 305 3.0 7.0 0.02 0.28 0.15 92 1017.2
20190215163319 49 276 4.0 7.0 0.02 0.28 0.15 92 1017.2
20190215162819 49 261 3.0 10.0 0.03 0.28 0.15 92 1017.2
20190215162320 49 302 4.0 10.0 0.05 0.28 0.15 92 1017.0
20190215161820 49 281 4.0 12.0 0.05 0.28 0.15 92 1017.0
20190215161319 49 300 3.0 12.0 0.05 0.28 0.15 91 1017.0
20190215160819 49 306 2.0 4.0 0.05 0.27 0.14 92 1017.1
20190215160319 49 261 2.0 6.0 0.05 0.27 0.14 92 1017.0
20190215155820 49 283 3.0 9.0 0.08 0.27 0.14 92 1017.0
20190215155318 49 300 4.0 9.0 0.08 0.27 0.14 92 1016.9
20190215154819 49 323 1.0 3.0 0.08 0.27 0.14 92 1016.9
20190215154318 49 200 1.0 3.0 0.08 0.27 0.14 92 1016.8
20190215153818 48 192 1.0 3.0 0.07 0.26 0.13 92 1016.8
20190215153317 48 178 0.0 2.0 0.07 0.26 0.13 91 1016.7
20190215152817 48 178 1.0 3.0 0.06 0.25 0.12 91 1016.8
20190215152319 48 202 1.0 5.0 0.04 0.23 0.11 91 1016.8
20190215151820 48 110 2.0 7.0 0.04 0.23 0.10 90 1016.7
20190215151318 48 140 2.0 7.0 0.04 0.23 0.10 90 1016.5
20190215150817 48 189 3.0 6.0 0.03 0.22 0.09 90 1016.4
20190215150317 48 111 3.0 7.0 0.03 0.22 0.09 89 1016.1
20190215145818 48 113 4.0 7.0 0.00 0.19 0.06 89 1016.0
20190215145317 48 128 4.0 12.0 0.00 0.19 0.06 89 1016.0
20190215144818 48 114 4.0 12.0 0.00 0.19 0.06 89 1015.9
20190215144317 48 114 5.0 9.0 0.00 0.19 0.06 89 1015.9
20190215143817 48 113 5.0 11.0 0.00 0.19 0.06 89 1015.8
20190215143316 48 117 4.0 11.0 0.00 0.19 0.06 89 1015.7
20190215142817 48 142 5.0 9.0 0.00 0.19 0.06 89 1015.7
20190215142317 48 102 4.0 9.0 0.00 0.19 0.06 89 1015.8
20190215141816 49 128 4.0 11.0 0.00 0.19 0.06 89 1016.0
20190215141317 49 94 5.0 11.0 0.00 0.19 0.06 89 1016.0
20190215140817 49 131 5.0 10.0 0.00 0.19 0.06 89 1016.1
20190215140316 48 113 4.0 7.0 0.00 0.19 0.06 89 1016.1
20190215135818 49 102 4.0 6.0 0.00 0.19 0.06 89 1016.1
20190215135316 49 123 3.0 7.0 0.00 0.19 0.06 89 1016.1
20190215134818 48 120 3.0 9.0 0.00 0.19 0.06 89 1016.1
20190215134317 48 117 5.0 11.0 0.00 0.19 0.06 89 1016.0
20190215133816 48 113 6.0 11.0 0.00 0.19 0.06 89 1016.1
20190215133317 48 107 5.0 9.0 0.00 0.19 0.06 89 1016.0
20190215132815 48 116 5.0 9.0 0.00 0.19 0.06 89 1016.2
20190215132315 48 93 5.0 11.0 0.00 0.19 0.06 89 1016.0
20190215131815 48 124 6.0 11.0 0.00 0.19 0.06 90 1016.0
20190215131315 48 130 4.0 10.0 0.00 0.19 0.06 90 1015.9
20190215130816 48 123 5.0 10.0 0.00 0.19 0.06 90 1015.9
20190215130314 48 100 6.0 7.0 0.00 0.19 0.06 90 1015.9
20190215125816 48 107 3.0 10.0 0.00 0.19 0.06 90 1015.7
20190215125314 48 114 4.0 10.0 0.00 0.19 0.06 90 1015.7
20190215124814 48 133 3.0 9.0 0.00 0.19 0.06 90 1015.7
20190215124313 48 120 4.0 12.0 0.00 0.19 0.06 91 1015.8
20190215123815 48 121 5.0 12.0 0.00 0.19 0.06 91 1015.7
20190215123315 47 99 5.0 10.0 0.00 0.19 0.06 91 1015.8
20190215122814 47 107 5.0 10.0 0.01 0.19 0.06 91 1015.7
20190215122313 47 111 4.0 9.0 0.01 0.19 0.06 91 1015.7
20190215121814 47 118 3.0 7.0 0.01 0.19 0.06 91 1015.8
20190215121313 47 99 3.0 9.0 0.01 0.19 0.06 91 1015.8
20190215120814 47 106 4.0 9.0 0.01 0.19 0.06 91 1015.9
20190215120313 47 128 4.0 9.0 0.01 0.19 0.06 91 1015.8
20190215115814 47 148 4.0 9.0 0.01 0.19 0.06 91 1015.8
20190215115314 47 147 4.0 7.0 0.01 0.19 0.06 90 1015.8
20190215114814 47 138 4.0 9.0 0.01 0.19 0.06 90 1015.7
20190215114312 48 172 2.0 9.0 0.01 0.19 0.06 90 1015.9
20190215113813 48 145 3.0 11.0 0.01 0.19 0.06 91 1015.7
20190215113312 48 102 6.0 11.0 0.01 0.19 0.06 90 1015.7
20190215112812 48 127 5.0 10.0 0.00 0.18 0.05 91 1015.7
20190215112314 47 128 3.0 10.0 0.00 0.18 0.05 90 1015.9
20190215111812 47 144 4.0 7.0 0.00 0.18 0.05 91 1015.7
20190215111313 47 104 3.0 4.0 0.00 0.18 0.05 90 1016.0
20190215110813 48 118 3.0 5.0 0.00 0.18 0.05 90 1016.0
20190215110313 48 124 2.0 5.0 0.00 0.18 0.05 90 1016.0